Time,TemperatureF,DewpointF,PressureIn,WindDirection,WindDirectionDegrees,WindSpeedMPH,WindSpeedGustMPH,Humidity,HourlyPrecipIn,Conditions,Clouds,dailyrainin,SoftwareType,DateUTC
2013-04-27 00:02:00,50.0,44.0,30.32,West,270,0.0,0.0,80,0.00,,,0.00,,2013-04-27 04:02:00,
2013-04-27 00:12:00,50.0,44.0,30.32,West,270,0.0,0.0,80,0.00,,,0.00,,2013-04-27 04:12:00,
2013-04-27 00:22:00,49.0,43.0,30.32,West,270,0.0,0.0,81,0.00,,,0.00,,2013-04-27 04:22:00,
2013-04-27 00:33:00,48.0,43.0,30.32,West,270,0.0,0.0,83,0.00,,,0.00,,2013-04-27 04:33:00,
2013-04-27 00:43:00,48.0,43.0,30.32,West,270,0.0,0.0,83,0.00,,,0.00,,2013-04-27 04:43:00,
2013-04-27 00:53:00,48.0,43.0,30.32,West,270,0.0,0.0,84,0.00,,,0.00,,2013-04-27 04:53:00,
2013-04-27 01:02:00,47.0,43.0,30.32,West,270,0.0,0.0,85,0.00,,,0.00,,2013-04-27 05:02:00,
2013-04-27 01:12:00,47.0,43.0,30.32,West,270,0.0,0.0,85,0.00,,,0.00,,2013-04-27 05:12:00,
2013-04-27 01:22:00,47.0,43.0,30.32,West,270,0.0,0.0,86,0.00,,,0.00,,2013-04-27 05:22:00,
2013-04-27 01:32:00,46.0,42.0,30.32,West,269,0.0,0.0,87,0.00,,,0.00,,2013-04-27 05:32:00,
2013-04-27 01:42:00,46.0,42.0,30.32,West,269,0.0,0.0,87,0.00,,,0.00,,2013-04-27 05:42:00,
2013-04-27 01:52:00,46.0,43.0,30.32,West,269,0.0,0.0,88,0.00,,,0.00,,2013-04-27 05:52:00,
2013-04-27 02:01:00,45.0,42.0,30.32,West,270,0.0,0.0,89,0.00,,,0.00,,2013-04-27 06:01:00,
2013-04-27 02:12:00,45.0,42.0,30.32,West,270,0.0,0.0,89,0.00,,,0.00,,2013-04-27 06:12:00,
2013-04-27 02:22:00,45.0,42.0,30.31,West,270,0.0,0.0,89,0.00,,,0.00,,2013-04-27 06:22:00,
2013-04-27 02:32:00,45.0,42.0,30.31,West,270,0.0,0.0,90,0.00,,,0.00,,2013-04-27 06:32:00,
2013-04-27 02:41:00,45.0,42.0,30.31,West,270,0.0,0.0,90,0.00,,,0.00,,2013-04-27 06:41:00,
2013-04-27 02:52:00,44.0,41.0,30.31,West,269,0.0,0.0,90,0.00,,,0.00,,2013-04-27 06:52:00,
2013-04-27 03:01:00,44.0,41.0,30.30,West,269,0.0,0.0,90,0.00,,,0.00,,2013-04-27 07:01:00,
2013-04-27 03:11:00,44.0,41.0,30.30,West,269,0.0,0.0,90,0.00,,,0.00,,2013-04-27 07:11:00,
2013-04-27 03:21:00,43.0,41.0,30.30,West,269,0.0,0.0,91,0.00,,,0.00,,2013-04-27 07:21:00,
2013-04-27 03:31:00,43.0,41.0,30.30,West,270,0.0,0.0,91,0.00,,,0.00,,2013-04-27 07:31:00,
2013-04-27 03:42:00,43.0,41.0,30.30,West,270,0.0,0.0,91,0.00,,,0.00,,2013-04-27 07:42:00,
2013-04-27 03:52:00,43.0,41.0,30.29,West,270,0.0,0.0,92,0.00,,,0.00,,2013-04-27 07:52:00,
2013-04-27 04:01:00,43.0,41.0,30.29,West,270,0.0,0.0,92,0.00,,,0.00,,2013-04-27 08:01:00,
2013-04-27 04:11:00,43.0,41.0,30.29,West,270,0.0,0.0,92,0.00,,,0.00,,2013-04-27 08:11:00,
2013-04-27 04:21:00,42.0,40.0,30.29,West,270,0.0,0.0,92,0.00,,,0.00,,2013-04-27 08:21:00,
2013-04-27 04:33:00,42.0,40.0,30.29,West,270,0.0,0.0,93,0.00,,,0.00,,2013-04-27 08:33:00,
2013-04-27 04:41:00,42.0,40.0,30.29,West,270,0.0,0.0,93,0.00,,,0.00,,2013-04-27 08:41:00,
2013-04-27 04:52:00,42.0,40.0,30.29,West,269,0.0,0.0,93,0.00,,,0.00,,2013-04-27 08:52:00,
2013-04-27 05:01:00,42.0,40.0,30.29,West,270,0.0,0.0,93,0.00,,,0.00,,2013-04-27 09:01:00,
2013-04-27 05:11:00,42.0,40.0,30.29,West,270,0.0,0.0,93,0.00,,,0.00,,2013-04-27 09:11:00,
2013-04-27 05:21:00,42.0,40.0,30.29,West,270,0.0,0.0,93,0.00,,,0.00,,2013-04-27 09:21:00,
2013-04-27 05:33:00,42.0,40.0,30.29,West,270,0.0,0.0,94,0.00,,,0.00,,2013-04-27 09:33:00,
2013-04-27 05:42:00,42.0,40.0,30.29,West,270,0.0,0.0,94,0.00,,,0.00,,2013-04-27 09:42:00,
2013-04-27 05:53:00,41.0,39.0,30.28,West,270,0.0,0.0,94,0.00,,,0.00,,2013-04-27 09:53:00,
2013-04-27 06:02:00,41.0,39.0,30.28,West,270,0.0,0.0,94,0.00,,,0.00,,2013-04-27 10:02:00,
2013-04-27 06:12:00,41.0,39.0,30.28,West,270,0.0,0.0,94,0.00,,,0.00,,2013-04-27 10:12:00,
2013-04-27 06:22:00,41.0,39.0,30.27,West,270,0.0,0.0,94,0.00,,,0.00,,2013-04-27 10:22:00,
2013-04-27 06:32:00,41.0,39.0,30.27,West,270,0.0,0.0,94,0.00,,,0.00,,2013-04-27 10:32:00,
2013-04-27 06:42:00,41.0,39.0,30.27,West,270,0.0,0.0,94,0.00,,,0.00,,2013-04-27 10:42:00,
2013-04-27 06:52:00,41.0,40.0,30.27,West,270,0.0,0.0,95,0.00,,,0.00,,2013-04-27 10:52:00,
2013-04-27 07:02:00,41.0,40.0,30.27,West,270,0.0,0.0,95,0.00,,,0.00,,2013-04-27 11:02:00,
2013-04-27 07:11:00,41.0,40.0,30.26,West,269,0.0,0.0,95,0.00,,,0.00,,2013-04-27 11:11:00,
2013-04-27 07:22:00,41.0,40.0,30.26,West,269,0.0,0.0,95,0.00,,,0.00,,2013-04-27 11:22:00,
2013-04-27 07:31:00,41.0,40.0,30.27,West,270,0.0,0.0,95,0.00,,,0.00,,2013-04-27 11:31:00,
2013-04-27 07:41:00,41.0,40.0,30.27,West,270,0.0,0.0,95,0.00,,,0.00,,2013-04-27 11:41:00,
2013-04-27 07:52:00,41.0,40.0,30.27,West,269,0.0,0.0,95,0.00,,,0.00,,2013-04-27 11:52:00,
2013-04-27 08:01:00,41.0,40.0,30.27,West,269,0.0,0.0,95,0.00,,,0.00,,2013-04-27 12:01:00,
2013-04-27 08:11:00,41.0,40.0,30.27,West,269,0.0,0.0,95,0.00,,,0.00,,2013-04-27 12:11:00,
2013-04-27 08:22:00,42.0,41.0,30.27,West,269,0.0,0.0,95,0.00,,,0.00,,2013-04-27 12:22:00,
2013-04-27 08:32:00,43.0,42.0,30.27,West,270,0.0,0.0,96,0.00,,,0.00,,2013-04-27 12:32:00,
2013-04-27 08:42:00,43.0,42.0,30.27,West,270,0.0,0.0,96,0.00,,,0.00,,2013-04-27 12:42:00,
2013-04-27 08:52:00,45.0,44.0,30.27,West,269,0.0,2.0,96,0.00,,,0.00,,2013-04-27 12:52:00,
2013-04-27 09:02:00,47.0,46.0,30.26,West,269,0.0,1.0,96,0.00,,,0.00,,2013-04-27 13:02:00,
2013-04-27 09:11:00,47.0,46.0,30.26,West,269,0.0,1.0,96,0.00,,,0.00,,2013-04-27 13:11:00,
2013-04-27 09:21:00,49.0,46.0,30.26,South,180,1.0,3.0,90,0.00,,,0.00,,2013-04-27 13:21:00,
2013-04-27 09:32:00,52.0,45.0,30.26,SSE,157,0.0,5.0,77,0.00,,,0.00,,2013-04-27 13:32:00,
2013-04-27 09:41:00,52.0,45.0,30.26,SSE,157,0.0,5.0,77,0.00,,,0.00,,2013-04-27 13:41:00,
2013-04-27 09:52:00,55.0,45.0,30.26,South,175,0.0,6.0,68,0.00,,,0.00,,2013-04-27 13:52:00,
2013-04-27 10:02:00,58.0,45.0,30.25,SSE,155,1.0,6.0,62,0.00,,,0.00,,2013-04-27 14:02:00,
2013-04-27 10:11:00,58.0,45.0,30.25,SSE,155,1.0,6.0,62,0.00,,,0.00,,2013-04-27 14:11:00,
2013-04-27 10:21:00,59.0,44.0,30.24,East,101,1.0,6.0,58,0.00,,,0.00,,2013-04-27 14:21:00,
2013-04-27 10:31:00,61.0,45.0,30.24,South,187,1.0,9.0,55,0.00,,,0.00,,2013-04-27 14:31:00,
2013-04-27 10:41:00,61.0,45.0,30.24,South,187,1.0,9.0,55,0.00,,,0.00,,2013-04-27 14:41:00,
2013-04-27 10:52:00,62.0,43.0,30.23,South,173,3.0,8.0,50,0.00,,,0.00,,2013-04-27 14:52:00,
2013-04-27 11:01:00,62.0,43.0,30.22,South,176,4.0,7.0,49,0.00,,,0.00,,2013-04-27 15:01:00,
2013-04-27 11:11:00,62.0,43.0,30.22,South,176,4.0,7.0,49,0.00,,,0.00,,2013-04-27 15:11:00,
2013-04-27 11:22:00,62.0,42.0,30.21,East,91,5.0,9.0,48,0.00,,,0.00,,2013-04-27 15:22:00,
2013-04-27 11:33:00,64.0,40.0,30.22,South,186,4.0,9.0,42,0.00,,,0.00,,2013-04-27 15:33:00,
2013-04-27 11:42:00,64.0,40.0,30.22,South,186,4.0,9.0,42,0.00,,,0.00,,2013-04-27 15:42:00,
2013-04-27 11:53:00,65.0,43.0,30.22,South,189,4.0,13.0,44,0.00,,,0.00,,2013-04-27 15:53:00,
2013-04-27 12:03:00,65.0,43.0,30.22,SE,143,2.0,8.0,45,0.00,,,0.00,,2013-04-27 16:03:00,
2013-04-27 12:13:00,65.0,43.0,30.22,SE,143,2.0,8.0,45,0.00,,,0.00,,2013-04-27 16:13:00,
2013-04-27 12:22:00,65.0,44.0,30.22,SSW,207,4.0,11.0,46,0.00,,,0.00,,2013-04-27 16:22:00,
2013-04-27 12:32:00,65.0,44.0,30.21,South,173,4.0,12.0,46,0.00,,,0.00,,2013-04-27 16:32:00,
2013-04-27 12:42:00,65.0,44.0,30.21,South,173,4.0,12.0,46,0.00,,,0.00,,2013-04-27 16:42:00,
2013-04-27 12:53:00,65.0,42.0,30.21,SW,223,1.0,8.0,43,0.00,,,0.00,,2013-04-27 16:53:00,
2013-04-27 13:02:00,66.0,42.0,30.21,SSE,150,3.0,11.0,41,0.00,,,0.00,,2013-04-27 17:02:00,
2013-04-27 13:12:00,66.0,42.0,30.21,SSE,150,3.0,11.0,41,0.00,,,0.00,,2013-04-27 17:12:00,
2013-04-27 13:22:00,67.0,43.0,30.20,West,259,2.0,14.0,41,0.00,,,0.00,,2013-04-27 17:22:00,
2013-04-27 13:32:00,67.0,42.0,30.20,SSW,211,2.0,11.0,40,0.00,,,0.00,,2013-04-27 17:32:00,
2013-04-27 13:42:00,67.0,42.0,30.20,SSW,211,2.0,11.0,40,0.00,,,0.00,,2013-04-27 17:42:00,
2013-04-27 13:53:00,66.0,42.0,30.20,SW,227,3.0,11.0,41,0.00,,,0.00,,2013-04-27 17:53:00,
2013-04-27 14:02:00,66.0,44.0,30.19,SSE,163,2.0,9.0,45,0.00,,,0.00,,2013-04-27 18:02:00,
2013-04-27 14:12:00,66.0,44.0,30.19,SSE,163,2.0,9.0,45,0.00,,,0.00,,2013-04-27 18:12:00,
2013-04-27 14:22:00,66.0,43.0,30.18,SSE,163,1.0,12.0,44,0.00,,,0.00,,2013-04-27 18:22:00,
2013-04-27 14:32:00,66.0,44.0,30.17,West,270,3.0,6.0,45,0.00,,,0.00,,2013-04-27 18:32:00,
2013-04-27 14:41:00,66.0,44.0,30.17,West,270,3.0,6.0,45,0.00,,,0.00,,2013-04-27 18:41:00,
2013-04-27 14:52:00,66.0,44.0,30.16,SSW,213,3.0,8.0,45,0.00,,,0.00,,2013-04-27 18:52:00,
2013-04-27 15:02:00,66.0,44.0,30.16,SW,228,4.0,10.0,45,0.00,,,0.00,,2013-04-27 19:02:00,
2013-04-27 15:11:00,66.0,44.0,30.16,SW,228,4.0,10.0,45,0.00,,,0.00,,2013-04-27 19:11:00,
2013-04-27 15:21:00,66.0,45.0,30.15,SE,135,2.0,11.0,46,0.00,,,0.00,,2013-04-27 19:21:00,
2013-04-27 15:32:00,66.0,46.0,30.14,SSW,209,2.0,8.0,48,0.00,,,0.00,,2013-04-27 19:32:00,
2013-04-27 15:42:00,66.0,46.0,30.14,SSW,209,2.0,8.0,48,0.00,,,0.00,,2013-04-27 19:42:00,
2013-04-27 15:53:00,66.0,45.0,30.14,South,179,4.0,10.0,47,0.00,,,0.00,,2013-04-27 19:53:00,
2013-04-27 16:02:00,66.0,45.0,30.13,South,171,5.0,10.0,47,0.00,,,0.00,,2013-04-27 20:02:00,
2013-04-27 16:11:00,66.0,45.0,30.13,South,171,5.0,10.0,47,0.00,,,0.00,,2013-04-27 20:11:00,
2013-04-27 16:21:00,66.0,47.0,30.11,SW,227,3.0,11.0,51,0.00,,,0.00,,2013-04-27 20:21:00,
2013-04-27 16:32:00,65.0,46.0,30.11,SW,223,4.0,10.0,51,0.00,,,0.00,,2013-04-27 20:32:00,
2013-04-27 16:42:00,65.0,46.0,30.11,SW,223,4.0,10.0,51,0.00,,,0.00,,2013-04-27 20:42:00,
2013-04-27 16:52:00,64.0,46.0,30.11,SSW,199,3.0,10.0,52,0.00,,,0.00,,2013-04-27 20:52:00,
2013-04-27 17:02:00,64.0,47.0,30.10,SSW,198,2.0,9.0,55,0.00,,,0.00,,2013-04-27 21:02:00,
2013-04-27 17:11:00,64.0,47.0,30.10,SSW,198,2.0,9.0,55,0.00,,,0.00,,2013-04-27 21:11:00,
2013-04-27 17:21:00,63.0,47.0,30.10,WSW,249,3.0,11.0,55,0.00,,,0.00,,2013-04-27 21:21:00,
2013-04-27 17:32:00,63.0,48.0,30.10,West,271,2.0,5.0,58,0.00,,,0.00,,2013-04-27 21:32:00,
2013-04-27 17:42:00,63.0,48.0,30.10,West,271,2.0,5.0,58,0.00,,,0.00,,2013-04-27 21:42:00,
2013-04-27 17:53:00,62.0,48.0,30.10,WSW,239,4.0,10.0,60,0.00,,,0.00,,2013-04-27 21:53:00,
2013-04-27 18:02:00,62.0,50.0,30.10,SE,140,1.0,9.0,64,0.00,,,0.00,,2013-04-27 22:02:00,
2013-04-27 18:12:00,62.0,50.0,30.10,SE,140,1.0,9.0,64,0.00,,,0.00,,2013-04-27 22:12:00,
2013-04-27 18:22:00,61.0,50.0,30.09,West,277,2.0,6.0,67,0.00,,,0.00,,2013-04-27 22:22:00,
2013-04-27 18:32:00,61.0,51.0,30.09,South,171,3.0,8.0,70,0.00,,,0.00,,2013-04-27 22:32:00,
2013-04-27 18:42:00,61.0,51.0,30.09,South,171,3.0,8.0,70,0.00,,,0.00,,2013-04-27 22:42:00,
2013-04-27 18:52:00,60.0,51.0,30.09,South,188,2.0,6.0,73,0.00,,,0.00,,2013-04-27 22:52:00,
2013-04-27 19:02:00,59.0,52.0,30.09,SE,146,1.0,7.0,77,0.00,,,0.00,,2013-04-27 23:02:00,
2013-04-27 19:11:00,59.0,52.0,30.09,SE,146,1.0,7.0,77,0.00,,,0.00,,2013-04-27 23:11:00,
2013-04-27 19:22:00,59.0,52.0,30.08,South,182,0.0,5.0,78,0.00,,,0.00,,2013-04-27 23:22:00,
2013-04-27 19:32:00,59.0,52.0,30.07,SSE,158,1.0,5.0,78,0.00,,,0.00,,2013-04-27 23:32:00,
2013-04-27 19:42:00,59.0,52.0,30.07,SSE,158,1.0,5.0,78,0.00,,,0.00,,2013-04-27 23:42:00,
2013-04-27 19:52:00,58.0,52.0,30.07,South,185,0.0,4.0,79,0.00,,,0.00,,2013-04-27 23:52:00,
2013-04-27 20:01:00,58.0,53.0,30.07,SSE,167,0.0,5.0,82,0.00,,,0.00,,2013-04-28 00:01:00,
2013-04-27 20:11:00,58.0,53.0,30.07,SSE,167,0.0,5.0,82,0.00,,,0.00,,2013-04-28 00:11:00,
2013-04-27 20:21:00,57.0,53.0,30.06,SSW,194,0.0,2.0,86,0.01,,,0.01,,2013-04-28 00:21:00,
2013-04-27 20:31:00,57.0,53.0,30.06,SSW,197,0.0,1.0,88,0.01,,,0.01,,2013-04-28 00:31:00,
2013-04-27 20:42:00,57.0,53.0,30.06,SSW,197,0.0,1.0,88,0.01,,,0.01,,2013-04-28 00:42:00,
2013-04-27 20:52:00,56.0,53.0,30.06,SSW,197,0.0,1.0,89,0.02,,,0.02,,2013-04-28 00:52:00,
2013-04-27 21:01:00,56.0,53.0,30.05,SSW,197,0.0,0.0,90,0.02,,,0.02,,2013-04-28 01:01:00,
2013-04-27 21:11:00,55.0,53.0,30.05,SSW,197,0.0,0.0,92,0.01,,,0.02,,2013-04-28 01:11:00,
2013-04-27 21:21:00,55.0,53.0,30.05,SSW,197,0.0,0.0,92,0.01,,,0.02,,2013-04-28 01:21:00,
2013-04-27 21:31:00,55.0,53.0,30.04,SSW,196,0.0,1.0,93,0.01,,,0.02,,2013-04-28 01:31:00,
2013-04-27 21:42:00,55.0,53.0,30.04,SSW,196,0.0,1.0,93,0.01,,,0.02,,2013-04-28 01:42:00,
2013-04-27 21:52:00,55.0,53.0,30.04,SSW,197,0.0,0.0,93,0.00,,,0.02,,2013-04-28 01:52:00,
2013-04-27 22:01:00,55.0,53.0,30.04,SSW,197,0.0,0.0,94,0.00,,,0.02,,2013-04-28 02:01:00,
2013-04-27 22:12:00,55.0,53.0,30.04,SSW,197,0.0,0.0,94,0.00,,,0.02,,2013-04-28 02:12:00,
2013-04-27 22:22:00,55.0,53.0,30.04,SSW,197,0.0,0.0,94,0.01,,,0.03,,2013-04-28 02:22:00,
2013-04-27 22:32:00,55.0,53.0,30.04,SSW,197,0.0,1.0,94,0.01,,,0.03,,2013-04-28 02:32:00,
2013-04-27 22:42:00,55.0,53.0,30.04,SSW,197,0.0,1.0,94,0.01,,,0.03,,2013-04-28 02:42:00,
2013-04-27 22:52:00,55.0,54.0,30.03,SSW,197,0.0,0.0,95,0.03,,,0.05,,2013-04-28 02:52:00,
2013-04-27 23:01:00,55.0,54.0,30.02,ESE,114,0.0,2.0,95,0.05,,,0.07,,2013-04-28 03:01:00,
2013-04-27 23:11:00,55.0,54.0,30.02,ESE,114,0.0,2.0,95,0.05,,,0.07,,2013-04-28 03:11:00,
2013-04-27 23:21:00,55.0,54.0,30.02,South,176,0.0,5.0,95,0.05,,,0.08,,2013-04-28 03:21:00,
2013-04-27 23:32:00,54.0,53.0,30.01,South,174,0.0,3.0,95,0.05,,,0.08,,2013-04-28 03:32:00,
2013-04-27 23:42:00,54.0,53.0,30.01,South,174,0.0,3.0,95,0.05,,,0.08,,2013-04-28 03:42:00,
2013-04-27 23:53:00,54.0,53.0,30.01,South,191,0.0,5.0,95,0.04,,,0.09,,2013-04-28 03:53:00,